Date String (YYYY-MM-DD hh:mm:ss) UTC,Instrument flags,Ambient pressure (hPa),Sample flow (lpm),Bypass flow (lpm),Sample temperature (°C),Ambient temperature (°C),ASC tube jacket temperature (°C),LED temperature (°C),Box temperature (°C),Sample RH (%),Span deviation,Mass concentration (μg/m³),Mass concentration (μg/m³),Mass concentration (μg/m³)
DateTimeUTC,F1_M11,P_M11,Q1_M11,Q2_M11,T1_M11,T2_M11,T3_M11,T4_M11,T5_M11,U1_M11,ZSPAN_M11,X0_M11,X2_M11,X1_M11
2023-01-29 00:00:00,,0820.0,5.02,0.00,22.0,21.2,00.0,30.9,23.8,14.1,0000.0,0006.13,0005.04,0004.99
2023-01-29 00:01:00,,0819.9,5.01,0.00,22.1,22.4,00.0,30.9,24.1,14.0,0000.0,0006.13,0005.04,0005.00
2023-01-29 00:02:00,,0820.0,4.99,0.00,22.2,22.7,00.0,30.9,24.2,13.9,0000.0,0006.16,0005.05,0005.00
2023-01-29 00:03:00,,0820.0,4.99,0.00,22.2,22.1,00.0,31.0,24.2,13.9,0000.0,0006.20,0005.07,0005.02
2023-01-29 00:04:00,,0820.0,5.00,0.00,22.2,21.6,00.0,31.0,24.0,13.9,0000.0,0006.27,0005.09,0005.03
2023-01-29 00:05:00,,0820.0,5.01,0.00,22.2,21.3,00.0,31.0,23.9,13.9,0000.0,0006.32,0005.11,0005.04
2023-01-29 00:06:00,,0820.1,5.00,0.00,22.1,21.0,00.0,31.0,23.8,14.0,0000.0,0006.33,0005.11,0005.03
2023-01-29 00:07:00,,0820.1,5.02,0.00,22.1,20.8,00.0,31.0,23.8,14.0,0000.0,0006.40,0005.13,0005.05
2023-01-29 00:08:00,,0820.2,5.03,0.00,22.1,20.6,00.0,31.0,23.7,14.0,0000.0,0006.39,0005.13,0005.05
2023-01-29 00:09:00,,0820.2,4.99,0.00,22.0,20.5,00.0,31.0,23.7,14.0,0000.0,0006.33,0005.09,0005.01
2023-01-29 00:10:00,,0820.2,5.00,0.00,22.0,20.4,00.0,31.0,23.6,14.0,0000.0,0006.27,0005.07,0004.99
2023-01-29 00:11:00,,0820.2,5.00,0.00,22.0,20.3,00.0,31.0,23.6,14.0,0000.0,0006.25,0005.07,0004.98
2023-01-29 00:12:00,,0820.2,4.99,0.00,22.0,20.5,00.0,30.9,23.6,14.0,0000.0,0006.27,0005.05,0004.95
2023-01-29 00:13:00,,0820.2,5.00,0.00,22.0,21.5,00.0,30.9,23.9,13.9,0000.0,0006.19,0005.02,0004.92
2023-01-29 00:14:00,,0820.3,4.99,0.00,22.2,22.5,00.0,30.9,24.2,13.7,0000.0,0006.15,0004.99,0004.89
2023-01-29 00:15:00,,0820.4,4.99,0.00,22.3,22.6,00.0,31.0,24.3,13.6,0000.0,0006.30,0004.98,0004.85
2023-01-29 00:16:00,,0820.3,5.00,0.00,22.3,22.1,00.0,31.0,24.2,13.6,0000.0,0006.38,0004.96,0004.80
2023-01-29 00:17:00,,0820.4,4.99,0.00,22.3,21.7,00.0,31.0,24.1,13.6,0000.0,0006.69,0004.96,0004.82
2023-01-29 00:18:00,,0820.4,5.00,0.00,22.2,21.3,00.0,31.1,24.0,13.6,0000.0,0007.78,0004.95,0004.79
2023-01-29 00:19:00,,0820.4,5.00,0.00,22.2,21.0,00.0,31.1,23.9,13.6,0000.0,0007.76,0004.93,0004.77
2023-01-29 00:20:00,,0820.5,5.02,0.00,22.2,20.8,00.0,31.1,23.8,13.6,0000.0,0007.76,0004.93,0004.77
2023-01-29 00:21:00,,0820.6,4.99,0.00,22.1,20.7,00.0,31.1,23.8,13.6,0000.0,0007.77,0004.95,0004.79
2023-01-29 00:22:00,,0820.6,4.99,0.00,22.1,20.5,00.0,31.1,23.7,13.6,0000.0,0007.78,0004.95,0004.79
2023-01-29 00:23:00,,0820.6,4.99,0.00,22.1,20.4,00.0,31.0,23.7,13.5,0000.0,0007.78,0004.96,0004.80
2023-01-29 00:24:00,,0820.6,5.01,0.00,22.0,20.3,00.0,31.0,23.6,13.5,0000.0,0007.79,0004.97,0004.82
2023-01-29 00:25:00,,0820.6,4.99,0.00,22.0,20.7,00.0,31.0,23.7,13.4,0000.0,0007.78,0004.97,0004.82
2023-01-29 00:26:00,,0820.6,5.02,0.00,22.1,21.7,00.0,31.0,24.0,13.3,0000.0,0007.66,0004.93,0004.81
2023-01-29 00:27:00,,0820.6,5.01,0.00,22.2,22.7,00.0,31.0,24.3,13.2,0000.0,0007.57,0004.91,0004.81
2023-01-29 00:28:00,,0820.6,5.00,0.00,22.3,22.5,00.0,31.0,24.3,13.1,0000.0,0007.24,0004.88,0004.78
2023-01-29 00:29:00,,0820.6,4.97,0.00,22.3,22.0,00.0,31.1,24.2,13.1,0000.0,0006.03,0004.86,0004.78
2023-01-29 00:30:00,,0820.6,5.00,0.00,22.3,21.6,00.0,31.1,24.0,13.1,0000.0,0006.02,0004.85,0004.77
2023-01-29 00:31:00,,0820.6,5.02,0.00,22.3,21.3,00.0,31.1,24.0,13.1,0000.0,0006.05,0004.85,0004.77
2023-01-29 00:32:00,,0820.6,4.99,0.00,22.2,21.0,00.0,31.1,23.9,13.1,0000.0,0006.06,0004.84,0004.76
2023-01-29 00:33:00,,0820.7,5.01,0.00,22.2,20.8,00.0,31.1,23.9,13.1,0000.0,0006.04,0004.82,0004.75
2023-01-29 00:34:00,,0820.7,4.99,0.00,22.2,20.7,00.0,31.1,23.8,13.1,0000.0,0006.04,0004.82,0004.76
2023-01-29 00:35:00,,0820.6,5.01,0.00,22.1,20.5,00.0,31.1,23.8,13.2,0000.0,0006.99,0004.84,0004.77
2023-01-29 00:36:00,,0820.7,5.00,0.00,22.1,20.4,00.0,31.1,23.7,13.1,0000.0,0007.49,0004.87,0004.80
2023-01-29 00:37:00,,0820.8,5.00,0.00,22.0,20.3,00.0,31.1,23.7,13.1,0000.0,0007.54,0004.90,0004.83
2023-01-29 00:38:00,,0820.8,5.01,0.00,22.1,20.8,00.0,31.0,23.8,13.1,0000.0,0007.57,0004.92,0004.86
2023-01-29 00:39:00,,0820.9,5.00,0.00,22.2,21.9,00.0,31.0,24.1,13.0,0000.0,0007.58,0004.96,0004.89
2023-01-29 00:40:00,,0820.9,4.99,0.00,22.3,22.7,00.0,31.0,24.3,12.8,0000.0,0007.60,0004.99,0004.93
2023-01-29 00:41:00,,0820.9,4.99,0.00,22.4,22.4,00.0,31.1,24.3,12.8,0000.0,0007.94,0005.05,0004.99
2023-01-29 00:42:00,,0821.0,5.02,0.00,22.4,21.9,00.0,31.1,24.2,12.7,0000.0,0008.31,0005.11,0005.04
2023-01-29 00:43:00,,0821.0,4.99,0.00,22.3,21.5,00.0,31.1,24.1,12.7,0000.0,0008.40,0005.16,0005.09
2023-01-29 00:44:00,,0821.0,5.01,0.00,22.3,21.2,00.0,31.1,24.0,12.7,0000.0,0008.46,0005.21,0005.14
2023-01-29 00:45:00,,0821.0,5.00,0.00,22.3,21.0,00.0,31.1,23.9,12.7,0000.4,0008.57,0005.28,0005.21
2023-01-29 00:46:00,,0821.0,4.99,0.00,22.2,20.7,00.0,31.1,23.9,12.7,-000.1,0008.28,0005.35,0005.28
2023-01-29 00:47:00,,0821.0,5.02,0.00,22.2,20.5,00.0,31.1,23.8,12.7,-000.9,0008.00,0005.41,0005.35
2023-01-29 00:48:00,,0821.1,5.01,0.00,22.1,20.4,00.0,31.1,23.7,12.7,-001.3,0008.07,0005.48,0005.41
2023-01-29 00:49:00,,0821.2,5.00,0.00,22.1,20.8,00.0,31.1,23.8,12.7,-001.7,0008.18,0005.55,0005.47
2023-01-29 00:50:00,,0821.2,5.00,0.00,22.2,21.8,00.0,31.0,24.1,12.6,-001.7,0008.26,0005.61,0005.52
2023-01-29 00:51:00,,0821.2,4.99,0.00,22.3,22.7,00.0,31.1,24.3,12.5,-002.0,0008.35,0005.67,0005.58
2023-01-29 00:52:00,,0821.2,4.99,0.00,22.4,22.5,00.0,31.1,24.4,12.3,-002.2,0008.22,0005.76,0005.66
2023-01-29 00:53:00,,0821.2,5.02,0.00,22.4,22.0,00.0,31.2,24.2,12.3,-002.5,0008.09,0005.85,0005.75
2023-01-29 00:54:00,,0821.3,5.00,0.00,22.4,21.5,00.0,31.2,24.1,12.2,-002.4,0008.22,0005.96,0005.86
2023-01-29 00:55:00,,0821.4,5.00,0.00,22.3,21.1,00.0,31.2,23.9,12.2,-002.1,0008.38,0006.09,0005.98
2023-01-29 00:56:00,,0821.4,4.99,0.00,22.2,20.8,00.0,31.2,23.8,12.2,-001.8,0008.51,0006.19,0006.07
2023-01-29 00:57:00,,0821.4,4.98,0.00,22.2,20.5,00.0,31.1,23.8,12.1,-001.7,0008.68,0006.27,0006.15
2023-01-29 00:58:00,,0821.4,4.99,0.00,22.2,20.4,00.0,31.1,23.7,12.1,-001.6,0008.80,0006.37,0006.24
2023-01-29 00:59:00,,0821.4,5.01,0.00,22.2,21.1,00.0,31.1,23.9,12.1,-001.5,0008.91,0006.48,0006.36
